QPF
0.00 0.00 0.00 0.00 0.00 0.00 0.00 0.00 0.00 0.00 0.00 0.00 0.00 0.00 0.00 0.00 0.00 0.00 0.00 0.00 0.00 0.00 0.00 0.00 0.00 0.00 0.00 0.00 0.00 0.01 0.00 0.00 0.00 0.00 0.00 0.00 0.00 0.00 0.00 0.00 0.00 0.00 0.00 0.00
0.00 0.00 0.00 0.00 0.00 0.00 0.00 0.00 0.00 0.00 0.00 0.00 0.00 0.00 0.00 0.00 0.00 0.00 0.00 0.00 0.00 0.00 0.00 0.00 0.00 0.00 0.00 0.00 0.00 0.00 0.01 0.02 0.01 0.00 0.00 0.00 0.00 0.00 0.00 0.00 0.00 0.00 0.00 0.00
0.00 0.00 0.00 0.00 0.00 0.00 0.00 0.00 0.00 0.00 0.00 0.00 0.00 0.00 0.00 0.00 0.00 0.00 0.00 0.00 0.00 0.00 0.00 0.00 0.00 0.00 0.00 0.01 0.01 0.03 0.04 0.04 0.02 0.00 0.00 0.00 0.00 0.00 0.00 0.00 0.00 0.00 0.00 0.00
0.00 0.00 0.00 0.00 0.00 0.00 0.00 0.00 0.00 0.00 0.00 0.00 0.00 0.00 0.00 0.00 0.00 0.00 0.00 0.00 0.00 0.00 0.00 0.00 0.00 0.00 0.02 0.03 0.03 0.04 0.04 0.03 0.01 0.00 0.00 0.00 0.00 0.00 0.00 0.00 0.00 0.00 0.00 0.00
0.00 0.00 0.00 0.00 0.00 0.00 0.00 0.00 0.00 0.00 0.00 0.00 0.00 0.00 0.00 0.00 0.00 0.00 0.00 0.00 0.00 0.00 0.00 0.00 0.00 0.00 0.02 0.03 0.02 0.03 0.02 0.02 0.01 0.00 0.00 0.00 0.00 0.00 0.00 0.00 0.00 0.00 0.00 0.00
0.00 0.00 0.00 0.00 0.00 0.00 0.00 0.00 0.00 0.00 0.00 0.00 0.00 0.00 0.00 0.00 0.00 0.00 0.00 0.00 0.00 0.00 0.00 0.00 0.00 0.00 0.04 0.03 0.01 0.01 0.01 0.01 0.00 0.00 0.00 0.00 0.00 0.00 0.00 0.00 0.00 0.00 0.00 0.00
0.00 0.00 0.00 0.00 0.00 0.00 0.00 0.00 0.00 0.00 0.00 0.00 0.00 0.00 0.00 0.00 0.00 0.00 0.00 0.00 0.00 0.00 0.00 0.00 0.00 0.00 0.00 0.01 0.01 0.00 0.00 0.00 0.00 0.00 0.00 0.00 0.00 0.00 0.00 0.00 0.00 0.00 0.00 0.00
0.00 0.00 0.00 0.00 0.00 0.00 0.00 0.00 0.00 0.00 0.00 0.00 0.00 0.00 0.00 0.00 0.00 0.00 0.00 0.00 0.00 0.00 0.00 0.00 0.00 0.00 0.00 0.00 0.00 0.00 0.00 0.00 0.00 0.00 0.00 0.00 0.00 0.00 0.00 0.00 0.00 0.00 0.00 0.00
0.00 0.00 0.00 0.00 0.00 0.00 0.00 0.00 0.00 0.00 0.00 0.00 0.00 0.00 0.00 0.00 0.00 0.00 0.00 0.00 0.00 0.00 0.00 0.00 0.00 0.00 0.00 0.00 0.00 0.00 0.00 0.00 0.00 0.00 0.00 0.00 0.00 0.00 0.00 0.00 0.00 0.00 0.00 0.00
0.00 0.00 0.00 0.00 0.00 0.00 0.00 0.00 0.00 0.00 0.00 0.00 0.00 0.00 0.00 0.00 0.00 0.00 0.00 0.00 0.00 0.00 0.00 0.00 0.00 0.00 0.00 0.00 0.00 0.00 0.00 0.00 0.00 0.00 0.00 0.00 0.00 0.00 0.00 0.00 0.00 0.00 0.00 0.00
0.00 0.00 0.00 0.00 0.00 0.00 0.00 0.00 0.00 0.00 0.00 0.00 0.00 0.00 0.00 0.00 0.00 0.00 0.00 0.00 0.00 0.00 0.00 0.00 0.00 0.00 0.00 0.00 0.00 0.00 0.00 0.00 0.00 0.00 0.00 0.00 0.00 0.00 0.00 0.00 0.00 0.00 0.00 0.00
0.00 0.00 0.00 0.00 0.00 0.00 0.00 0.00 0.00 0.00 0.00 0.00 0.00 0.00 0.00 0.00 0.00 0.00 0.00 0.00 0.00 0.00 0.00 0.00 0.00 0.00 0.00 0.00 0.00 0.00 0.00 0.00 0.00 0.00 0.00 0.00 0.00 0.00 0.00 0.00 0.00 0.00 0.00 0.00
0.00 0.00 0.00 0.00 0.00 0.00 0.00 0.00 0.00 0.00 0.00 0.00 0.01 0.00 0.00 0.00 0.00 0.00 0.00 0.00 0.00 0.00 0.00 0.00 0.00 0.00 0.00 0.00 0.00 0.00 0.00 0.00 0.00 0.00 0.00 0.00 0.00 0.00 0.00 0.00 0.00 0.00 0.00 0.00
0.00 0.00 0.00 0.00 0.00 0.00 0.00 0.00 0.00 0.00 0.00 0.00 0.00 0.00 0.00 0.00 0.00 0.00 0.00 0.00 0.00 0.00 0.00 0.00 0.00 0.00 0.00 0.00 0.00 0.00 0.00 0.00 0.00 0.00 0.00 0.00 0.00 0.00 0.00 0.00 0.00 0.00 0.00 0.00
0.00 0.00 0.00 0.00 0.00 0.00 0.00 0.00 0.00 0.00 0.00 0.00 0.00 0.00 0.00 0.00 0.00 0.00 0.00 0.00 0.00 0.00 0.00 0.00 0.00 0.00 0.00 0.00 0.00 0.00 0.00 0.00 0.00 0.00 0.00 0.00 0.00 0.00 0.00 0.00 0.00 0.00 0.00 0.00
0.00 0.00 0.00 0.00 0.00 0.00 0.00 0.00 0.00 0.00 0.00 0.00 0.00 0.00 0.00 0.00 0.00 0.00 0.00 0.00 0.00 0.00 0.00 0.00 0.00 0.00 0.00 0.00 0.00 0.00 0.00 0.00 0.00 0.00 0.00 0.00 0.00 0.00 0.00 0.00 0.01 0.02 0.03 0.04
0.00 0.00 0.00 0.00 0.00 0.00 0.00 0.00 0.00 0.00 0.00 0.00 0.00 0.00 0.00 0.00 0.00 0.00 0.00 0.00 0.00 0.00 0.00 0.00 0.00 0.00 0.00 0.00 0.00 0.00 0.00 0.00 0.00 0.00 0.00 0.00 0.00 0.00 0.01 0.01 0.03 0.07 0.08 0.07
0.00 0.00 0.00 0.00 0.00 0.00 0.00 0.00 0.00 0.00 0.00 0.00 0.00 0.00 0.00 0.00 0.00 0.00 0.00 0.00 0.00 0.00 0.00 0.00 0.00 0.00 0.00 0.00 0.00 0.00 0.00 0.00 0.00 0.00 0.00 0.00 0.00 0.01 0.03 0.05 0.07 0.10 0.10 0.10
0.00 0.00 0.00 0.00 0.00 0.00 0.00 0.00 0.00 0.00 0.00 0.00 0.00 0.00 0.00 0.00 0.00 0.00 0.00 0.00 0.00 0.00 0.00 0.00 0.00 0.00 0.00 0.00 0.00 0.00 0.00 0.00 0.00 0.00 0.00 0.00 0.00 0.01 0.06 0.12 0.15 0.16 0.16 0.13
0.00 0.00 0.00 0.00 0.00 0.00 0.00 0.00 0.00 0.00 0.00 0.00 0.00 0.00 0.00 0.00 0.00 0.00 0.00 0.00 0.00 0.00 0.00 0.00 0.00 0.00 0.00 0.00 0.00 0.00 0.00 0.00 0.00 0.00 0.00 0.00 0.00 0.01 0.04 0.09 0.11 0.12 0.10 0.07
0.00 0.00 0.00 0.00 0.00 0.00 0.00 0.00 0.00 0.00 0.00 0.00 0.00 0.00 0.00 0.00 0.00 0.00 0.00 0.00 0.00 0.00 0.00 0.00 0.00 0.00 0.00 0.00 0.00 0.00 0.00 0.00 0.00 0.00 0.00 0.00 0.00 0.01 0.02 0.03 0.04 0.04 0.05 0.07
0.00 0.00 0.00 0.00 0.00 0.00 0.00 0.00 0.00 0.00 0.00 0.00 0.00 0.00 0.00 0.00 0.00 0.00 0.00 0.00 0.00 0.00 0.00 0.00 0.00 0.00 0.00 0.00 0.00 0.00 0.00 0.00 0.00 0.00 0.00 0.00 0.00 0.01 0.01 0.03 0.05 0.04 0.05 0.06
0.00 0.00 0.00 0.00 0.00 0.00 0.00 0.00 0.00 0.00 0.00 0.00 0.00 0.00 0.00 0.00 0.00 0.00 0.00 0.00 0.00 0.00 0.00 0.00 0.00 0.00 0.00 0.00 0.00 0.00 0.00 0.00 0.00 0.00 0.00 0.00 0.01 0.01 0.01 0.01 0.03 0.04 0.05 0.06
0.00 0.00 0.00 0.00 0.00 0.00 0.00 0.00 0.00 0.00 0.00 0.00 0.00 0.00 0.00 0.00 0.00 0.00 0.01 0.01 0.00 0.00 0.00 0.00 0.00 0.00 0.00 0.00 0.00 0.00 0.00 0.00 0.00 0.00 0.00 0.01 0.02 0.02 0.03 0.03 0.03 0.03 0.05 0.06
0.00 0.00 0.00 0.00 0.00 0.00 0.00 0.00 0.00 0.00 0.00 0.00 0.00 0.00 0.00 0.00 0.00 0.00 0.01 0.01 0.00 0.00 0.00 0.00 0.00 0.00 0.00 0.00 0.00 0.00 0.00 0.00 0.00 0.01 0.02 0.02 0.02 0.02 0.02 0.03 0.03 0.04 0.05 0.03
0.00 0.00 0.00 0.00 0.00 0.00 0.00 0.00 0.00 0.00 0.00 0.00 0.00 0.00 0.00 0.00 0.00 0.00 0.00 0.01 0.01 0.00 0.00 0.00 0.00 0.00 0.00 0.00 0.00 0.00 0.00 0.00 0.01 0.01 0.02 0.02 0.02 0.02 0.02 0.02 0.04 0.07 0.08 0.07
MSLP
1013.82 1014.65 1014.49 1014.20 1013.93 1013.56 1013.61 1013.54 1012.98 1011.95 1011.20 1010.95 1010.16 1009.69 1009.04 1008.38 1008.04 1007.98 1007.89 1007.65 1006.97 1006.72 1005.63 1005.71 1006.65 1007.78 1008.89 1009.93 1010.63 1011.08 1012.04 1012.92 1013.37 1014.18 1014.68 1015.99 1017.00 1017.57 1017.97 1018.19 1018.38 1018.55 1018.69 1018.81
1014.21 1013.99 1013.74 1013.76 1013.76 1013.65 1013.51 1013.25 1012.57 1011.83 1010.97 1010.53 1010.23 1009.97 1009.26 1008.98 1008.90 1009.26 1008.97 1008.21 1007.76 1006.94 1006.36 1006.49 1007.11 1008.08 1008.48 1009.14 1010.24 1011.28 1011.85 1013.08 1014.02 1014.69 1015.00 1015.38 1016.25 1017.24 1017.60 1018.05 1018.36 1018.67 1018.82 1018.90
1013.76 1012.93 1012.92 1013.45 1013.08 1013.26 1012.80 1012.59 1012.11 1011.74 1011.10 1010.62 1010.45 1009.94 1009.41 1009.09 1009.47 1009.55 1009.43 1009.20 1008.59 1008.47 1007.88 1006.97 1007.92 1008.28 1008.75 1009.43 1010.64 1012.01 1012.71 1013.66 1014.29 1014.80 1015.36 1016.42 1016.96 1017.59 1018.22 1018.46 1018.46 1018.57 1018.74 1018.96
1013.23 1012.69 1012.49 1012.64 1012.34 1012.09 1011.94 1011.42 1011.64 1011.69 1011.71 1011.80 1011.25 1010.83 1009.49 1009.20 1009.95 1010.11 1009.63 1009.61 1009.33 1008.81 1008.07 1007.59 1008.15 1009.24 1010.33 1011.36 1012.16 1012.62 1013.37 1014.30 1014.82 1015.01 1015.39 1016.00 1016.56 1017.55 1018.06 1018.24 1018.53 1018.75 1018.79 1018.98
1012.30 1011.73 1011.55 1011.57 1011.48 1011.12 1011.29 1011.04 1011.45 1011.94 1012.51 1012.64 1012.25 1012.24 1009.68 1009.24 1010.03 1010.69 1010.46 1010.16 1009.87 1009.33 1009.08 1009.35 1010.12 1010.40 1011.31 1011.66 1012.44 1013.17 1013.92 1014.46 1014.68 1014.74 1014.98 1015.82 1016.61 1017.25 1017.69 1018.17 1018.41 1018.95 1019.16 1019.28
1012.11 1011.46 1011.36 1010.67 1010.58 1010.53 1011.01 1011.57 1012.07 1012.80 1013.65 1013.41 1012.65 1012.31 1010.89 1010.43 1010.76 1011.02 1011.35 1011.41 1010.68 1010.07 1009.70 1010.35 1011.14 1011.63 1012.61 1012.92 1013.46 1013.99 1014.37 1014.39 1014.61 1014.96 1015.28 1015.78 1016.40 1017.08 1017.86 1018.61 1019.08 1019.10 1019.25 1019.35
1011.98 1011.29 1010.96 1010.84 1010.80 1010.71 1011.04 1012.31 1013.76 1014.70 1015.01 1014.21 1013.26 1013.01 1011.86 1011.25 1011.48 1011.72 1011.82 1011.85 1011.47 1011.07 1011.08 1010.82 1010.58 1011.42 1012.71 1013.47 1013.82 1014.15 1014.55 1014.56 1014.68 1015.01 1015.31 1015.70 1016.17 1016.80 1017.22 1017.99 1018.58 1019.11 1019.48 1019.74
1011.87 1011.22 1010.22 1009.86 1010.13 1010.49 1011.25 1012.41 1014.05 1015.06 1015.55 1015.02 1013.92 1013.11 1012.21 1011.76 1011.84 1011.86 1012.13 1012.01 1011.80 1011.65 1011.80 1011.97 1012.32 1012.23 1012.43 1013.24 1013.75 1014.12 1014.40 1014.48 1014.92 1015.16 1015.32 1015.63 1016.20 1016.68 1017.26 1017.46 1017.95 1018.41 1018.63 1019.32
1011.13 1010.68 1009.30 1009.22 1009.33 1010.01 1011.13 1012.09 1013.06 1014.65 1015.99 1016.14 1014.69 1013.52 1012.78 1012.12 1011.95 1012.03 1012.12 1012.52 1012.83 1012.43 1012.55 1012.65 1013.16 1013.30 1013.27 1013.42 1013.98 1014.22 1014.33 1014.56 1014.83 1015.08 1015.59 1015.81 1016.10 1016.61 1017.06 1017.20 1017.62 1018.24 1018.65 1018.98
1010.51 1010.24 1009.70 1009.54 1009.44 1009.93 1010.12 1011.45 1013.25 1015.21 1016.89 1016.73 1015.15 1013.90 1012.78 1012.43 1012.22 1012.18 1012.23 1012.49 1012.89 1013.26 1013.09 1012.95 1012.95 1012.88 1012.96 1013.17 1013.63 1014.10 1014.23 1014.48 1014.91 1015.06 1015.29 1015.53 1015.84 1016.30 1016.53 1016.92 1017.40 1017.64 1018.20 1018.68
1010.37 1010.57 1010.84 1010.51 1010.12 1010.60 1010.86 1011.21 1012.83 1014.56 1015.96 1016.33 1016.02 1014.34 1012.75 1012.49 1012.27 1012.24 1012.11 1012.22 1012.48 1012.95 1012.94 1012.79 1012.73 1012.97 1012.98 1013.12 1013.34 1013.75 1014.13 1014.45 1014.65 1015.00 1015.23 1015.58 1015.78 1015.99 1016.29 1016.72 1016.95 1017.44 1017.58 1018.23
1010.14 1010.97 1011.76 1011.38 1010.66 1010.70 1010.95 1011.36 1012.58 1014.30 1015.81 1016.16 1016.02 1014.24 1012.69 1012.42 1012.24 1012.37 1012.19 1012.32 1012.30 1012.57 1012.74 1012.78 1013.22 1013.17 1013.16 1013.42 1013.52 1013.96 1014.22 1014.52 1014.86 1015.03 1015.20 1015.39 1015.58 1015.79 1016.37 1016.95 1017.14 1017.37 1017.48 1018.14
1010.18 1011.33 1012.73 1012.73 1012.17 1011.61 1012.14 1012.54 1013.09 1014.17 1015.33 1015.93 1015.98 1014.54 1013.08 1013.01 1013.29 1013.39 1013.01 1012.37 1012.54 1012.67 1012.86 1013.33 1013.53 1013.59 1013.40 1013.63 1013.87 1014.27 1014.60 1014.84 1014.98 1015.04 1015.13 1015.41 1015.59 1015.79 1015.98 1016.39 1017.00 1017.47 1017.83 1018.10
1010.58 1012.14 1012.78 1012.77 1012.53 1012.88 1013.41 1013.75 1014.18 1014.71 1015.92 1016.19 1015.69 1014.79 1013.24 1013.28 1013.05 1013.25 1013.35 1012.85 1012.50 1012.52 1012.58 1013.18 1013.79 1013.46 1013.50 1013.84 1014.04 1014.35 1014.54 1014.57 1014.77 1015.04 1015.21 1015.26 1015.36 1015.60 1016.01 1016.45 1016.56 1017.07 1017.69 1018.34
1011.69 1013.42 1014.10 1014.21 1014.07 1013.96 1013.94 1014.00 1014.72 1015.21 1015.91 1016.33 1015.63 1014.95 1013.36 1013.74 1013.21 1012.65 1012.60 1012.47 1012.33 1012.21 1012.53 1012.79 1013.45 1013.80 1013.88 1014.05 1014.24 1014.27 1014.35 1014.41 1014.60 1014.97 1015.28 1015.42 1015.86 1016.22 1016.37 1016.53 1017.17 1017.59 1018.17 1018.90
1012.64 1014.41 1015.18 1015.92 1015.46 1014.97 1014.76 1014.50 1014.82 1015.12 1015.25 1015.41 1015.15 1014.56 1013.74 1012.93 1013.00 1012.98 1012.73 1012.43 1012.29 1012.33 1012.42 1012.92 1013.27 1013.63 1013.94 1014.17 1014.26 1014.03 1014.09 1014.44 1014.67 1014.99 1015.24 1015.60 1015.95 1016.36 1016.59 1017.11 1017.47 1018.06 1018.49 1019.00
1013.39 1014.68 1015.94 1016.42 1016.40 1015.81 1015.28 1014.05 1014.36 1014.48 1014.69 1014.82 1015.00 1014.29 1013.67 1013.47 1013.57 1013.70 1013.34 1012.90 1012.57 1012.90 1013.45 1013.81 1014.12 1014.38 1014.44 1014.39 1014.67 1014.53 1014.33 1014.67 1014.89 1015.15 1015.51 1015.89 1016.22 1016.62 1016.92 1017.31 1017.86 1018.36 1018.74 1019.40
1013.64 1014.81 1016.05 1017.35 1017.38 1016.92 1014.43 1013.91 1014.00 1013.79 1013.73 1014.15 1014.10 1014.08 1014.10 1014.20 1014.44 1014.34 1014.14 1013.91 1013.98 1014.15 1014.54 1014.86 1015.07 1015.03 1014.95 1015.11 1014.54 1015.01 1014.94 1015.24 1015.26 1015.70 1016.04 1016.27 1016.48 1016.96 1017.40 1017.94 1018.68 1019.20 1019.38 1019.99
1013.38 1015.01 1016.92 1017.62 1017.26 1015.91 1014.03 1013.63 1013.49 1013.68 1014.01 1014.02 1014.04 1014.16 1014.24 1014.45 1014.81 1014.95 1014.87 1014.82 1014.90 1014.98 1014.98 1015.20 1015.41 1015.67 1015.63 1015.54 1015.37 1015.49 1015.37 1015.31 1015.63 1016.25 1016.53 1016.57 1016.96 1017.47 1017.91 1018.39 1019.22 1019.69 1020.26 1020.89
1014.42 1015.25 1016.60 1017.57 1017.51 1016.14 1014.13 1013.30 1013.33 1013.52 1014.02 1014.23 1014.29 1014.43 1014.50 1014.56 1015.36 1015.34 1014.96 1015.17 1015.25 1015.35 1015.55 1015.73 1015.91 1015.85 1016.02 1015.56 1015.92 1015.94 1015.78 1015.45 1016.03 1016.54 1016.93 1017.40 1017.52 1017.75 1018.11 1018.56 1019.24 1020.03 1020.64 1021.24
1015.12 1016.29 1016.97 1017.17 1017.13 1015.77 1013.55 1013.25 1013.13 1014.20 1014.12 1013.86 1014.03 1014.25 1014.52 1015.01 1015.24 1015.04 1015.16 1015.15 1015.09 1015.23 1015.41 1015.52 1015.86 1015.75 1016.06 1015.72 1015.79 1016.11 1015.77 1016.03 1016.61 1016.87 1017.22 1017.82 1017.90 1018.21 1018.46 1018.94 1019.53 1020.28 1020.97 1021.66
1014.30 1015.52 1016.34 1016.85 1016.92 1015.39 1013.03 1012.94 1013.31 1013.30 1013.25 1013.44 1013.73 1013.83 1014.14 1014.49 1014.74 1015.04 1015.18 1015.41 1015.51 1015.33 1015.30 1015.41 1015.84 1015.56 1015.88 1015.53 1015.45 1016.26 1016.27 1016.45 1017.11 1017.24 1017.70 1018.30 1018.42 1018.60 1019.07 1019.46 1020.09 1020.63 1021.28 1022.00
1013.82 1013.83 1014.77 1015.11 1014.17 1012.94 1012.40 1012.34 1012.32 1012.39 1012.59 1012.84 1013.24 1013.53 1013.63 1014.16 1014.73 1014.84 1015.31 1015.85 1016.06 1015.90 1015.81 1015.54 1015.71 1016.01 1015.79 1015.68 1015.77 1015.99 1016.28 1017.07 1017.36 1017.56 1018.05 1018.76 1019.09 1019.21 1019.31 1019.97 1020.52 1020.80 1021.69 1022.15
1013.34 1013.22 1013.87 1014.16 1013.32 1013.07 1012.57 1012.25 1012.15 1012.12 1012.21 1012.41 1012.93 1013.25 1013.49 1014.19 1014.28 1014.89 1015.28 1015.60 1015.80 1015.72 1015.87 1015.84 1015.63 1015.87 1016.31 1016.13 1015.98 1015.90 1016.68 1017.18 1017.51 1017.83 1018.31 1018.81 1019.35 1019.69 1019.85 1020.15 1020.88 1021.03 1021.85 1022.23
1013.76 1013.57 1013.62 1013.50 1013.17 1012.84 1012.39 1012.25 1012.06 1012.00 1012.09 1012.33 1012.76 1012.95 1013.03 1013.45 1014.06 1014.30 1014.63 1014.94 1015.02 1015.13 1015.03 1015.22 1015.87 1016.30 1016.31 1016.48 1016.18 1016.54 1017.03 1017.29 1017.76 1018.08 1018.45 1018.92 1019.28 1019.70 1020.18 1020.54 1021.05 1021.56 1021.90 1022.10
1013.65 1013.35 1013.60 1012.90 1012.93 1012.59 1012.33 1012.30 1012.22 1012.28 1012.24 1012.20 1012.40 1012.47 1012.50 1012.80 1013.22 1013.41 1013.70 1013.95 1014.26 1014.57 1014.85 1014.33 1015.46 1016.04 1016.46 1016.69 1016.75 1017.04 1017.18 1017.23 1017.71 1018.13 1018.64 1018.93 1019.42 1019.63 1020.26 1020.82 1021.24 1021.96 1022.10 1022.51
Thickness
5661 5647 5644 5655 5659 5668 5666 5660 5658 5670 5681 5677 5680 5680 5690 5701 5703 5699 5705 5709 5716 5716 5735 5739 5730 5721 5715 5709 5706 5700 5691 5683 5678 5671 5666 5656 5647 5642 5640 5637 5636 5633 5632 5633
5646 5642 5654 5657 5658 5656 5654 5650 5653 5666 5676 5678 5674 5672 5688 5689 5689 5681 5684 5691 5697 5706 5720 5723 5718 5712 5709 5705 5703 5691 5683 5671 5663 5657 5654 5651 5644 5637 5634 5630 5627 5622 5623 5625
5632 5650 5658 5651 5649 5645 5649 5647 5652 5654 5668 5671 5664 5663 5680 5684 5676 5675 5676 5681 5688 5687 5693 5711 5706 5704 5701 5696 5685 5678 5670 5659 5651 5647 5643 5633 5629 5624 5620 5618 5618 5617 5615 5615
5635 5650 5648 5644 5644 5647 5637 5656 5654 5652 5645 5629 5655 5624 5670 5674 5658 5660 5668 5669 5674 5683 5692 5699 5697 5687 5680 5672 5666 5661 5655 5644 5639 5637 5634 5630 5628 5619 5614 5612 5609 5607 5605 5604
5633 5645 5641 5638 5643 5652 5642 5656 5649 5646 5633 5629 5634 5617 5655 5671 5654 5649 5655 5663 5666 5674 5679 5676 5672 5671 5665 5662 5655 5648 5640 5635 5631 5631 5630 5623 5616 5611 5607 5603 5601 5595 5592 5588
5629 5644 5641 5643 5651 5649 5647 5639 5632 5625 5616 5599 5627 5621 5627 5641 5641 5637 5640 5642 5653 5661 5665 5661 5656 5653 5645 5641 5636 5630 5626 5624 5622 5619 5617 5613 5609 5603 5595 5588 5583 5581 5578 5577
5620 5626 5635 5638 5631 5640 5636 5617 5587 5587 5588 5591 5622 5611 5620 5633 5632 5629 5626 5628 5633 5643 5645 5651 5655 5646 5632 5624 5621 5618 5614 5611 5609 5606 5603 5599 5597 5593 5590 5583 5577 5570 5566 5562
5599 5597 5626 5635 5629 5622 5618 5613 5584 5580 5577 5590 5612 5601 5607 5624 5624 5622 5617 5617 5620 5623 5627 5628 5626 5628 5628 5621 5614 5607 5604 5604 5598 5593 5591 5587 5583 5581 5577 5574 5567 5563 5560 5552
5592 5598 5633 5635 5636 5631 5614 5599 5612 5588 5576 5552 5588 5602 5608 5614 5611 5610 5608 5601 5599 5605 5609 5612 5608 5606 5609 5607 5599 5596 5594 5591 5585 5581 5576 5574 5572 5568 5564 5562 5558 5551 5546 5542
5601 5596 5618 5624 5629 5623 5618 5614 5587 5567 5553 5556 5577 5586 5580 5589 5594 5596 5594 5594 5589 5591 5593 5597 5601 5606 5604 5598 5591 5583 5579 5575 5569 5566 5564 5561 5557 5554 5553 5549 5544 5543 5537 5530
5597 5590 5592 5605 5602 5597 5601 5592 5589 5576 5560 5555 5553 5564 5583 5578 5579 5583 5590 5589 5587 5580 5581 5586 5591 5591 5589 5584 5579 5570 5565 5562 5559 5554 5549 5544 5542 5542 5539 5535 5533 5528 5527 5521
5594 5575 5568 5582 5595 5600 5597 5589 5582 5557 5556 5549 5537 5556 5583 5576 5575 5574 5578 5574 5578 5572 5570 5572 5572 5572 5572 5570 5567 5557 5552 5548 5542 5539 5535 5531 5528 5524 5519 5513 5511 5509 5509 5503
5584 5554 5539 5554 5570 5580 5573 5571 5570 5558 5544 5541 5541 5546 5569 5558 5554 5557 5556 5567 5562 5561 5560 5553 5556 5556 5557 5554 5551 5542 5532 5528 5524 5523 5521 5516 5512 5507 5503 5497 5491 5488 5485 5482
5569 5549 5548 5553 5557 5553 5550 5550 5548 5539 5501 5516 5524 5538 5561 5549 5547 5543 5541 5548 5550 5550 5547 5538 5536 5543 5542 5538 5534 5527 5521 5515 5512 5507 5502 5499 5497 5492 5485 5479 5475 5468 5462 5456
5541 5517 5517 5524 5530 5534 5536 5538 5527 5523 5519 5504 5518 5527 5553 5536 5539 5540 5537 5535 5537 5538 5535 5535 5530 5527 5524 5522 5519 5514 5510 5505 5500 5492 5487 5482 5477 5470 5463 5457 5447 5440 5432 5426
5523 5494 5486 5493 5508 5516 5517 5522 5514 5513 5514 5510 5511 5514 5533 5537 5528 5523 5526 5528 5530 5526 5525 5522 5519 5515 5513 5508 5505 5505 5502 5494 5488 5482 5477 5469 5461 5454 5446 5436 5428 5419 5412 5407
5503 5494 5488 5492 5493 5490 5488 5510 5509 5509 5506 5500 5482 5507 5516 5515 5512 5506 5510 5513 5517 5509 5501 5499 5496 5494 5493 5493 5488 5488 5486 5480 5476 5470 5464 5456 5449 5440 5431 5420 5411 5401 5394 5388
5491 5487 5473 5470 5468 5429 5505 5510 5504 5502 5505 5498 5499 5501 5502 5498 5493 5489 5490 5491 5490 5486 5480 5476 5472 5473 5472 5470 5475 5469 5468 5463 5460 5454 5450 5444 5439 5430 5418 5404 5392 5381 5375 5370
5487 5466 5443 5438 5451 5472 5503 5498 5494 5486 5482 5488 5487 5487 5489 5486 5480 5478 5477 5474 5471 5469 5466 5460 5456 5453 5454 5455 5456 5453 5450 5450 5448 5441 5436 5433 5426 5416 5405 5391 5378 5368 5357 5348
5468 5458 5432 5430 5409 5424 5475 5490 5481 5473 5461 5473 5473 5469 5468 5468 5440 5453 5466 5459 5455 5451 5450 5447 5442 5441 5442 5444 5439 5438 5440 5443 5437 5429 5424 5417 5412 5405 5397 5384 5370 5357 5345 5332
5428 5415 5407 5411 5413 5429 5475 5475 5467 5432 5456 5456 5460 5456 5454 5443 5445 5452 5447 5446 5444 5441 5441 5439 5434 5431 5427 5433 5432 5429 5432 5429 5421 5417 5411 5403 5400 5393 5386 5376 5363 5350 5335 5323
5434 5421 5413 5394 5392 5395 5466 5463 5435 5431 5443 5446 5446 5448 5447 5441 5441 5438 5435 5430 5427 5429 5432 5432 5425 5426 5423 5425 5425 5419 5418 5415 5407 5404 5398 5390 5386 5381 5373 5366 5354 5343 5330 5318
5411 5422 5410 5414 5412 5437 5450 5444 5445 5437 5438 5437 5436 5436 5436 5432 5425 5427 5418 5415 5411 5411 5416 5420 5415 5413 5416 5415 5414 5413 5408 5399 5395 5391 5385 5375 5369 5365 5362 5354 5346 5338 5324 5314
5419 5424 5402 5411 5427 5424 5433 5433 5431 5431 5428 5429 5424 5423 5425 5416 5403 5406 5405 5405 5403 5405 5406 5409 5410 5406 5402 5402 5404 5405 5395 5389 5383 5377 5370 5362 5353 5347 5344 5340 5334 5332 5320 5310
5394 5401 5397 5390 5403 5406 5418 5415 5414 5414 5414 5413 5412 5413 5413 5408 5403 5403 5401 5400 5398 5397 5403 5406 5399 5394 5391 5389 5393 5388 5383 5378 5371 5364 5356 5347 5339 5331 5326 5324 5321 5319 5317 5313
5384 5380 5366 5385 5384 5391 5397 5401 5398 5395 5394 5396 5395 5398 5402 5402 5401 5402 5399 5396 5395 5394 5395 5400 5391 5386 5380 5378 5378 5374 5371 5369 5361 5354 5345 5336 5324 5316 5311 5311 5310 5305 5305 5302